Flag for Spain Weather past 2 weeks in Sevilla, Spain

Now
75 °F

Clear.


Feels Like: 77 °F
Forecast: 67 / 92 °F
Wind: 13 mph from Southwest

Location: Sevilla / San Pablo

Current Time: Sep 2, 2014 at 5:31:28 AM

Latest Report: Sep 2, 2014 at 4:30 AM


Visibility: 10 mi

Pressure: 29.92 "Hg

Humidity: 74%

Dew point: 66 °F

Location of SevillaLocation

Historic Weather in Sevilla — Graph

°F

Sevilla temperature yesterday

Maximum temperature yesterday: 99 °F (at 3:30 PM)
Minimum temperature yesterday: 70 °F (at 8:00 AM)
Average temperature yesterday: 85 °F

Past Weeks' High & Low Weather Summary

 TemperatureHumidityPressure
High102 °F (Aug 27, 5:00 PM)94% (Aug 19, 6:30 AM)30.07 "Hg (Aug 19, 6:30 AM)
Low63 °F (Aug 21, 7:30 AM)13% (Aug 23, 5:30 PM)29.80 "Hg (Aug 18, 7:30 PM)
Average81 °F45%29.96 "Hg
* Reported Aug 18 4:00 AM — Sep 2 4:30 AM, Sevilla, Weather by CustomWeather, © 2014

Note: Actual official high and low records may vary slightly from our data, if they occured in-between our weather recording intervals... More about our weather records

Advertising

Sevilla weather history for previous 24 hours

 ConditionsComfort  
Time TempWeatherWind HumidityBarometerVisibility
4:30 AM
Sep 2
75 °FClear.13 mph74%29.92 "Hg10 mi
4:00 AM77 °FClear.13 mph65%29.92 "Hg10 mi
3:30 AM75 °FClear.13 mph74%29.92 "Hg10 mi
1:00 AM81 °FPassing clouds.8 mph62%29.89 "HgN/A
12:30 AM81 °FClear.8 mph58%29.89 "Hg10 mi
12:00 AM84 °FPassing clouds.7 mph51%29.89 "HgN/A
11:30 PM
Sep 1
84 °FClear.6 mph48%29.89 "Hg10 mi
10:30 PM86 °FClear.7 mph46%29.89 "Hg10 mi
10:00 PM88 °FClear.8 mph43%29.86 "Hg10 mi
9:30 PM88 °FPassing clouds.9 mph43%29.86 "HgN/A
9:00 PM90 °FSunny.10 mph41%29.83 "Hg10 mi
8:30 PM91 °FSunny.10 mph38%29.83 "Hg10 mi
8:00 PM95 °FSunny.9 mph28%29.83 "Hg10 mi
7:30 PM97 °FPassing clouds.7 mph27%29.83 "HgN/A
7:00 PM97 °FSunny.8 mph27%29.83 "Hg10 mi
6:30 PM99 °FPassing clouds.8 mph25%29.83 "HgN/A
6:00 PM97 °FPassing clouds.8 mph27%29.86 "HgN/A
5:30 PM99 °FPassing clouds.7 mph27%29.86 "HgN/A
5:00 PM99 °FPassing clouds.7 mph27%29.86 "HgN/A
4:30 PM99 °FSunny.3 mph25%29.86 "Hg10 mi
4:00 PM99 °FSunny.3 mph25%29.86 "Hg10 mi
3:30 PM99 °FSunny.2 mph27%29.89 "Hg10 mi
3:00 PM97 °FPassing clouds.5 mph30%29.89 "HgN/A
2:30 PM95 °FSunny.1 mph32%29.92 "Hg10 mi
2:00 PM93 °FPassing clouds.3 mph34%29.92 "HgN/A
1:30 PM91 °FPassing clouds.3 mph38%29.92 "HgN/A
1:00 PM90 °FPassing clouds.6 mph41%29.95 "HgN/A
12:30 PM90 °FPassing clouds.6 mph41%29.95 "HgN/A
12:00 PM88 °FSunny.3 mph46%29.95 "Hg10 mi
11:30 AM84 °FPassing clouds.3 mph51%29.95 "HgN/A
11:00 AM82 °FPassing clouds.5 mph55%29.95 "HgN/A
10:30 AM81 °FSunny.2 mph58%29.95 "Hg10 mi
10:00 AM81 °FSunny.1 mph58%29.95 "Hg10 mi
9:30 AM75 °FSunny.3 mph65%29.95 "Hg10 mi
9:00 AM72 °FSunny.1 mph73%29.95 "Hg10 mi
8:30 AM70 °FClear.5 mph73%29.95 "Hg10 mi
8:00 AM70 °FClear.No wind78%29.95 "Hg10 mi
7:30 AM72 °FClear.No wind69%29.95 "Hg10 mi
7:00 AM72 °FClear.No wind69%29.95 "Hg10 mi
6:30 AM72 °FClear.No wind69%29.92 "Hg10 mi
6:00 AM72 °FClear.No wind69%29.92 "Hg10 mi
5:30 AM72 °FClear.2 mph73%29.92 "Hg10 mi
5:00 AM72 °FClear.2 mph73%29.95 "Hg10 mi
Weather by CustomWeather, © 2014

See weather overviewHow to use our weather pages